Terminal Aerodrome Forecast
Issued by NWS

Home | Current Version | Previous Version | Text Only | Print | Product List | Glossary On
Versions: 1 2 3 4 5 6 7 8 9 10 11 12 13 14 15 16 17 18 19 20
884
FTUS42 KMLB 221733
TAFFPR
TAF
KFPR 221733Z 2218/2318 15012G20KT 5SM -RA BR OVC015
      TEMPO 2218/2222 2SM SHRA OVC010
     FM222200 14011KT 5SM -RA BR OVC020
      TEMPO 2222/2302 3SM SHRA BKN015 OVC030
     FM230200 13012KT P6SM VCSH SCT020 OVC040
     FM230600 13007KT P6SM SCT020 OVC040=

USA.gov is the U.S. government's official web portal to all federal, state and local government web resources and services.